Details From PAFE - KAKE
To PAHN - HAINES
Flight Number -
Tags decoded
Created
Modified
Stats Distance 146 nm / 271 km
Max Altitude 0 ft / 0 m
Waypoints 2
Social Downloads 1
Likes 0
Share VATSIM

Download

Looking for another format? Having issues loading an existing format? Contact us
Advertisement - Login to hide

Notes

Requested: PAFE PAHN

Route

PAFE PAHN

ID Type Via Altitude Latitude Longitude Leg Dist Tot Dist Heading (true) Name
O PAFE APT - 0 ft / 0 m 56.96136˚ -133.91026˚ - 0 nm - KAKE
O PAHN APT - 0 ft / 0 m 59.24383˚ -135.52354˚ 146 nm 146 nm 340° / 339° HAINES

Altitude Profile

Advertisement - Login to hide

PAFE

Details ICAO PAFE (AFE)
Name KAKE
Region USA (Alaska)
Timezone America/Juneau (UTC-8.0)
Stats Elevation 172 ft / 52 m (AMSL)
Location 56.961362° -133.910261°
Runways 1
Magnetic Variation 18.734° E

METAR

PAFE 222256Z AUTO 19006KT 10SM BKN040 OVC050 11/07 A2994 RMK AO2 RAE00 SLP152 P0000 T01110072 $

Decode

TAF

Not found

Departure Runways

ID Width Length Bearing (true) Bearing (mag) Surface Threshold Offset Overrun Length
10 100 ft / 30 m 3,990 ft / 1,216 m 129.93° 111.20° Asphalt 0 ft / 0 m 295 ft / 90 m
28 100 ft / 30 m 3,990 ft / 1,216 m 309.94° 291.21° Asphalt 1,000 ft / 305 m 295 ft / 90 m

PAHN

Details ICAO PAHN (HNS)
Name HAINES
Region USA (Alaska)
Timezone Unknown (UTC+0.0)
Stats Elevation 15 ft / 5 m (AMSL)
Location 59.243829° -135.523538°
Runways 1
Magnetic Variation 19.138° E

METAR

PAHN 222329Z AUTO 10009KT 10SM SCT020 BKN070 BKN095 11/08 A2985 RMK AO2 T01110078 TSNO

Decode

TAF

TAF AMD PAHN 222136Z 2222/2318 09008KT P6SM -SHRA BKN015 OVC050 FM230600 09005KT P6SM VCSH BKN015 OVC070 AMD LTD TO CLD VIS AND WIND

Decode

Destination Runways

ID Width Length Bearing (true) Bearing (mag) Surface Threshold Offset Overrun Length
08 100 ft / 30 m 3,988 ft / 1,216 m 110.17° 91.03° Asphalt 0 ft / 0 m 300 ft / 91 m
26 100 ft / 30 m 3,988 ft / 1,216 m 290.19° 271.05° Asphalt 1,000 ft / 305 m 300 ft / 91 m

Popular Alternatives